Location: Courcelles
(49.2596°N, 1.7419°E)
Time: 21:30:24
(UTC+00:00)

Cosmos 2061 Rocket - Pass Details

Date: 17 November 2025
Orbit: 964 x 1012 km, 82.9° (Epoch: 10 December)

Event Time Altitude Azimuth Distance (km) Brightness Sun altitude
Rises 17:02:16 0° 182° (S) 3,694 7.3 -8.8°
Reaches altitude 10° 17:04:47 10° 181° (S) 2,742 6.6 -9.2°
Maximum altitude 17:11:04 78° 96° (E) 1,008 4.0 -10.1°
Drops below altitude 10° 17:17:18 10° 12° (NNE) 2,729 6.1 -11.1°
Sets 17:19:49 0° 11° (N) 3,675 6.7 -11.5°
